Terminal Aerodrome Forecast
Issued by NWS

Home | Current Version | Previous Version | Text Only | Print | Product List | Glossary On
Versions: 1 2 3 4 5 6 7 8 9 10 11 12 13 14 15 16 17 18 19 20 21 22 23 24 25 26 27 28 29 30 31 32 33 34 35 36 37 38 39 40 41 42 43 44 45 46 47 48 49 50
000
FTUS44 KHGX 261503 AAA
TAFIAH
TAF AMD
KIAH 261503Z 2615/2718 20008KT P6SM SCT025 BKN250
     FM262100 16009KT P6SM VCSH SCT050 SCT250
     FM270400 VRB04KT P6SM FEW250
     FM271000 VRB02KT P6SM FEW015
     FM271500 18006KT P6SM SCT030=

USA.gov is the U.S. government's official web portal to all federal, state and local government web resources and services.